Flag for Canada Weather past 2 weeks in Cranbrook, British Columbia, Canada

9 °F

Light snow. Ice fog.

Feels Like: 0 °F
Forecast: 8 / 24 °F
Wind: 5 mph from West

Location: Cranbrook

Current Time: Nov 29, 2015 at 11:35:27 PM

Latest Report: Nov 29, 2015 at 11:00 PM

Visibility: 3 mi

Pressure: 30.44 "Hg (26.93 "Hg at 933m altitude)

Humidity: 78%

Dew point: 3 °F

Location of CranbrookLocation

Historic Weather in Cranbrook — Graph


Cranbrook temperature yesterday

Maximum temperature yesterday: 14 °F (at 3:00 PM)
Minimum temperature yesterday: -4 °F (at 2:00 AM)
Average temperature yesterday: 2 °F

Past Weeks' High & Low Weather Summary

High45 °F (Nov 15, 3:00 PM)100% (Nov 24, 4:00 AM)30.81 "Hg (Nov 24, 4:00 AM)
Low-6 °F (Nov 27, 8:00 AM)23% (Nov 18, 12:00 PM)29.08 "Hg (Nov 17, 7:00 PM)
Average21 °F72%30.23 "Hg
* Reported Nov 14 11:00 PM — Nov 29 10:00 PM, Cranbrook, Weather by CustomWeather, © 2015

Note: Actual official high and low records may vary slightly from our data, if they occured in-between our weather recording intervals... More about our weather records


Cranbrook weather history for previous 24 hours

Time TempWeatherWind HumidityBarometerVisibility
10:00 PM
Sun, Nov 29
9 °FLight snow. Ice fog.2 mph78%30.45 "Hg4 mi
9:00 PM9 °FLight snow. Ice fog.3 mph85%30.45 "Hg4 mi
8:00 PM9 °FLight snow. Ice fog.5 mph85%30.46 "Hg3 mi
7:00 PM10 °FLight snow. Ice fog.3 mph79%30.46 "Hg3 mi
6:00 PM10 °FLight snow. Ice fog.No wind85%30.45 "Hg3 mi
5:00 PM10 °FLight snow. Low clouds.No wind85%30.46 "Hg3 mi
4:00 PM10 °FLight snow. Low clouds.No wind85%30.46 "Hg3 mi
3:00 PM10 °FLight snow. Low clouds.5 mph85%30.47 "Hg3 mi
2:00 PM10 °FLight snow. Ice fog.No wind85%30.49 "Hg2 mi
1:00 PM9 °FLight snow. Ice fog.No wind85%30.51 "Hg1 mi
12:00 PM9 °FLight snow. Ice fog.2 mph78%30.54 "Hg1 mi
11:00 AM7 °FIce fog.2 mph78%30.56 "Hg1 mi
10:00 AM3 °FIce fog.2 mph85%30.58 "Hg1 mi
9:00 AM1 °FIce fog.No wind85%30.58 "Hg1 mi
8:00 AM1 °FIce fog.2 mph78%30.57 "Hg1 mi
7:00 AM1 °FIce fog.2 mph78%30.57 "Hg1 mi
6:00 AM1 °FIce fog.2 mph85%30.58 "Hg0 mi
5:00 AM3 °FIce fog.3 mph78%30.56 "Hg0 mi
4:00 AM1 °FIce fog.2 mph78%30.55 "Hg1 mi
3:00 AM0 °FIce fog.2 mph78%30.57 "Hg1 mi
2:00 AM0 °FIce fog.2 mph78%30.56 "Hg0 mi
1:00 AM0 °FIce fog.2 mph78%30.58 "Hg1 mi
12:00 AM-2 °FClear.No wind77%30.59 "Hg25 mi
11:00 PM
Sat, Nov 28
-2 °FClear.No wind84%30.60 "Hg25 mi
Weather by CustomWeather, © 2015

See weather overviewHow to use our weather pages